PAL1805 RPLL-RPMD

Flight info

Callsign PAL1805
Flight time N/A
Altitude 37000
Route IPATA2R IPATA B462 MASBA W9A BN W9 RIMAR RIMAR2R
Aircraft B77W/H-L/LB1D1

Departure

Time 2026-05-07 15:49
Airport Ninoy Aquino International Airport (RPLL)

Arrival

Time N/A
Airport Francisco Bangoy International Airport (RPMD)
Time Latitude Longitude Altitude Speed Heading
2026-05-07 15:19 14.50911 121.01415 88 ft 0 kts 330°
2026-05-07 15:33 14.50904 121.01419 88 ft 2 kts 332°
2026-05-07 15:34 14.50891 121.01427 88 ft 2 kts 332°
2026-05-07 15:34 14.50877 121.01434 88 ft 2 kts 331°
2026-05-07 15:34 14.50865 121.01441 88 ft 2 kts 331°
2026-05-07 15:34 14.50855 121.01447 88 ft 0 kts 331°
2026-05-07 15:35 14.50844 121.01454 88 ft 2 kts 302°
2026-05-07 15:35 14.50839 121.01469 88 ft 2 kts 264°
2026-05-07 15:35 14.50842 121.01480 88 ft 0 kts 240°
2026-05-07 15:35 14.50845 121.01484 88 ft 0 kts 239°
2026-05-07 15:38 14.50844 121.01482 88 ft 1 kts 239°
2026-05-07 15:38 14.50826 121.01451 88 ft 7 kts 240°
2026-05-07 15:38 14.50795 121.01394 88 ft 9 kts 241°
2026-05-07 15:39 14.50761 121.01334 88 ft 9 kts 228°
2026-05-07 15:39 14.50704 121.01318 88 ft 8 kts 172°
2026-05-07 15:39 14.50659 121.01292 88 ft 7 kts 232°
2026-05-07 15:39 14.50628 121.01244 88 ft 8 kts 239°
2026-05-07 15:40 14.50597 121.01190 88 ft 8 kts 240°
2026-05-07 15:40 14.50567 121.01135 88 ft 9 kts 240°
2026-05-07 15:40 14.50535 121.01076 88 ft 9 kts 240°
2026-05-07 15:40 14.50501 121.01015 88 ft 9 kts 240°
2026-05-07 15:41 14.50466 121.00954 88 ft 10 kts 240°
2026-05-07 15:41 14.50430 121.00889 88 ft 10 kts 240°
2026-05-07 15:41 14.50393 121.00823 88 ft 10 kts 240°
2026-05-07 15:41 14.50356 121.00757 88 ft 10 kts 241°
2026-05-07 15:42 14.50319 121.00689 88 ft 10 kts 241°
2026-05-07 15:42 14.50282 121.00620 88 ft 11 kts 241°
2026-05-07 15:42 14.50244 121.00550 88 ft 11 kts 240°
2026-05-07 15:42 14.50205 121.00481 88 ft 11 kts 239°
2026-05-07 15:43 14.50165 121.00410 88 ft 11 kts 240°
2026-05-07 15:43 14.50126 121.00339 88 ft 11 kts 240°
2026-05-07 15:43 14.50085 121.00268 88 ft 11 kts 240°
2026-05-07 15:43 14.50046 121.00197 88 ft 11 kts 240°
2026-05-07 15:44 14.50007 121.00128 88 ft 10 kts 240°
2026-05-07 15:44 14.49970 121.00060 88 ft 10 kts 240°
2026-05-07 15:44 14.49943 121.00010 88 ft 5 kts 240°
2026-05-07 15:44 14.49936 120.99999 88 ft 0 kts 238°
2026-05-07 15:46 14.49920 120.99980 88 ft 5 kts 226°
2026-05-07 15:46 14.49887 120.99966 88 ft 5 kts 183°
2026-05-07 15:47 14.49871 120.99970 88 ft 1 kts 155°
2026-05-07 15:47 14.49851 120.99980 88 ft 4 kts 152°
2026-05-07 15:47 14.49811 121.00003 88 ft 7 kts 143°
2026-05-07 15:47 14.49806 121.00047 88 ft 6 kts 66°
2026-05-07 15:48 14.49809 121.00054 88 ft 0 kts 64°
2026-05-07 15:48 14.49843 121.00122 88 ft 39 kts 62°
2026-05-07 15:48 14.50106 121.00594 88 ft 111 kts 60°
2026-05-07 15:48 14.50609 121.01496 92 ft 172 kts 61°
2026-05-07 15:49 14.51211 121.02595 695 ft 177 kts 63°
2026-05-07 15:49 14.51814 121.03691 1475 ft 179 kts 60°
2026-05-07 15:49 14.52459 121.04833 1967 ft 193 kts 60°
2026-05-07 15:49 14.52923 121.05666 2274 ft 205 kts 60°
2026-05-07 15:50 14.53161 121.06094 2444 ft 210 kts 60°